timestamp,surface_pressure_avg,surface_temp_avg,battery_voltage,lat,long
2023-05-10 00:09:00+00:00,290.8331,2.9,12.49,47.84626,-54.09684
2023-05-10 00:19:00+00:00,297.7263,2.9,12.49,47.84626,-54.09684
2023-05-10 00:29:00+00:00,298.3647,2.9,12.49,47.84626,-54.09684
2023-05-10 00:39:00+00:00,309.153,2.9,12.49,47.84626,-54.09684
2023-05-10 00:49:00+00:00,325.3897,2.89,12.49,47.84626,-54.09684
2023-05-10 00:59:00+00:00,329.1813,2.88,12.49,47.84626,-54.09684
2023-05-10 01:09:00+00:00,332.8879,2.85,12.49,47.84626,-54.09684
2023-05-10 01:19:00+00:00,343.5813,2.83,12.49,47.84626,-54.09684
2023-05-10 01:29:00+00:00,352.2197,2.82,12.49,47.84626,-54.09684
2023-05-10 01:39:00+00:00,353.68300000000005,2.8,12.49,47.84626,-54.09684
2023-05-10 01:49:00+00:00,357.3895,2.8,12.49,47.84626,-54.09684
2023-05-10 01:59:00+00:00,365.2596,2.8,12.49,47.84626,-54.09684
2023-05-10 02:09:00+00:00,367.2163,2.8,12.49,47.84626,-54.09684
2023-05-10 02:19:00+00:00,368.2213,2.8,12.49,47.84626,-54.09684
2023-05-10 02:29:00+00:00,370.7145,2.8,12.49,47.84626,-54.09684
2023-05-10 02:39:00+00:00,373.2062,2.8,12.49,47.84626,-54.09684
2023-05-10 02:49:00+00:00,374.1514,2.79,12.49,47.84626,-54.09684
2023-05-10 02:59:00+00:00,372.7145,2.7,12.49,47.84626,-54.09684
2023-05-10 03:09:00+00:00,372.8746,2.7,12.49,47.84626,-54.09684
2023-05-10 03:19:00+00:00,374.2713,2.7,12.49,47.84626,-54.09684
2023-05-10 03:29:00+00:00,374.8862,2.69,12.49,47.84626,-54.09684
2023-05-10 03:39:00+00:00,373.2679,2.65,12.49,47.84626,-54.09684
2023-05-10 03:49:00+00:00,366.8279,2.68,12.49,47.84626,-54.09684
2023-05-10 03:59:00+00:00,363.9346,2.67,12.49,47.84626,-54.09684
2023-05-10 04:09:00+00:00,363.9013,2.66,12.49,47.84626,-54.09684
2023-05-10 04:19:01+00:00,355.6696,2.64,12.49,47.84626,-54.09684
2023-05-10 04:29:01+00:00,346.2113,2.63,12.49,47.84626,-54.09684
2023-05-10 04:39:01+00:00,341.9746,2.62,12.49,47.84626,-54.09684
2023-05-10 04:49:01+00:00,339.1813,2.61,12.49,47.84626,-54.09684
2023-05-10 04:59:01+00:00,326.6046,2.6,12.49,47.84626,-54.09684
2023-05-10 05:09:01+00:00,314.668,2.5,12.49,47.84626,-54.09684
2023-05-10 05:19:00+00:00,310.9747,2.4,12.49,47.84626,-54.09684
2023-05-10 05:29:00+00:00,304.5997,2.4,12.49,47.84626,-54.09684
2023-05-10 05:39:00+00:00,291.8347,2.4,12.49,47.84626,-54.09684
2023-05-10 05:49:00+00:00,283.6914,2.4,12.49,47.84626,-54.09684
2023-05-10 05:59:00+00:00,279.4464,2.4,12.49,47.84626,-54.09684
2023-05-10 06:09:00+00:00,269.5664,2.4,12.49,47.84626,-54.09684
2023-05-10 06:19:00+00:00,258.1264,2.4,12.49,47.84626,-54.09684
2023-05-10 06:29:00+00:00,252.9331,2.4,12.49,47.84626,-54.09684
2023-05-10 06:39:00+00:00,246.2364,2.42,12.49,47.84626,-54.09684
2023-05-10 06:49:00+00:00,236.4214,2.48,12.49,47.84626,-54.09684
2023-05-10 06:59:00+00:00,230.5381,2.5,12.49,47.84626,-54.09684
2023-05-10 07:09:00+00:00,229.3297,2.5,12.49,47.84626,-54.09684
2023-05-10 07:19:00+00:00,225.3531,2.5,12.49,47.84626,-54.09684
2023-05-10 07:29:00+00:00,221.1115,2.5,12.49,47.84626,-54.09684
2023-05-10 07:39:00+00:00,218.7614,2.5,12.49,47.84626,-54.09684
2023-05-10 07:49:00+00:00,217.0698,2.5,12.49,47.84626,-54.09684
2023-05-10 07:59:00+00:00,212.433,2.5,12.49,47.84626,-54.09684
2023-05-10 08:09:00+00:00,211.1264,2.5,12.49,47.84626,-54.09684
2023-05-10 08:19:00+00:00,213.0098,2.5,12.49,47.84626,-54.09684
2023-05-10 08:29:00+00:00,211.7531,2.5,12.49,47.84626,-54.09684
2023-05-10 08:39:00+00:00,210.8714,2.5,12.49,47.84626,-54.09684
2023-05-10 08:49:00+00:00,212.3964,2.5,12.49,47.84626,-54.09684
2023-05-10 08:59:00+00:00,212.6848,2.5,12.49,47.84626,-54.09684
2023-05-10 09:09:00+00:00,211.2864,2.49,12.49,47.84626,-54.09684
2023-05-10 09:19:00+00:00,212.4848,2.5,12.49,47.84626,-54.09684
2023-05-10 09:29:00+00:00,217.9648,2.5,12.49,47.84626,-54.09684
2023-05-10 09:39:00+00:00,221.3465,2.5,12.49,47.84626,-54.09684
2023-05-10 09:49:00+00:00,222.0114,2.5,12.49,47.84626,-54.09684
2023-05-10 09:59:00+00:00,223.1314,2.5,12.49,47.84626,-54.09684
2023-05-10 10:09:00+00:00,225.9131,2.49,12.49,47.84626,-54.09684
2023-05-10 10:19:00+00:00,227.7498,2.49,12.97,47.84626,-54.09684
2023-05-10 10:29:00+00:00,227.8364,2.49,12.97,47.84626,-54.09684
2023-05-10 10:39:00+00:00,229.2398,2.5,12.97,47.84626,-54.09684
2023-05-10 10:49:00+00:00,233.2648,2.5,12.97,47.84626,-54.09684
2023-05-10 10:59:00+00:00,235.2231,2.5,12.97,47.84626,-54.09684
2023-05-10 11:09:00+00:00,237.3998,2.49,12.97,47.84626,-54.09684
2023-05-10 11:19:00+00:00,243.6231,2.49,13.76,47.84626,-54.09684
2023-05-10 11:29:00+00:00,250.9514,2.49,13.76,47.84626,-54.09684
2023-05-10 11:39:00+00:00,254.4931,2.5,13.76,47.84626,-54.09684
2023-05-10 11:49:00+00:00,256.7514,2.5,13.76,47.84626,-54.09684
2023-05-10 11:59:00+00:00,262.6314,2.5,13.76,47.84626,-54.09684
2023-05-10 12:09:00+00:00,269.4448,2.5,13.76,47.84626,-54.09684
2023-05-10 12:19:01+00:00,272.3931,2.5,14.0,47.84626,-54.09684
2023-05-10 12:29:01+00:00,275.4431,2.5,14.0,47.84626,-54.09684
2023-05-10 12:39:01+00:00,283.093,2.5,14.0,47.84626,-54.09684
2023-05-10 12:49:01+00:00,290.4114,2.5,14.0,47.84626,-54.09684
2023-05-10 12:59:01+00:00,293.3163,2.5,14.0,47.84626,-54.09684
2023-05-10 13:09:01+00:00,297.473,2.5,14.0,47.84626,-54.09684
2023-05-10 13:19:00+00:00,305.053,2.5,13.84,47.84626,-54.09684
2023-05-10 13:29:00+00:00,309.6163,2.52,13.84,47.84626,-54.09684
2023-05-10 13:39:00+00:00,313.0364,2.51,13.84,47.84626,-54.09684
2023-05-10 13:49:00+00:00,319.7513,2.5,13.84,47.84626,-54.09684
2023-05-10 13:59:00+00:00,325.1396,2.5,13.84,47.84626,-54.09684
2023-05-10 14:09:00+00:00,326.3013,2.59,13.84,47.84626,-54.09684
2023-05-10 14:19:00+00:00,327.7313,2.6,13.44,47.84626,-54.09684
2023-05-10 14:29:00+00:00,332.9612,2.6,13.44,47.84626,-54.09684
2023-05-10 14:39:00+00:00,336.6880000000001,2.66,13.44,47.84626,-54.09684
2023-05-10 14:49:00+00:00,338.0779,2.7,13.44,47.84626,-54.09684
2023-05-10 14:59:00+00:00,340.7446,2.7,13.44,47.84626,-54.09684
2023-05-10 15:09:00+00:00,341.8312,2.7,13.44,47.84626,-54.09684
2023-05-10 15:19:00+00:00,341.3614,2.7,13.76,47.84626,-54.09684
2023-05-10 15:29:00+00:00,341.6678,2.67,13.76,47.84626,-54.09684
2023-05-10 15:39:00+00:00,342.653,2.68,13.76,47.84626,-54.09684
2023-05-10 15:49:00+00:00,339.1496,2.7,13.76,47.84626,-54.09684
2023-05-10 15:59:00+00:00,337.0314,2.7,13.76,47.84626,-54.09684
2023-05-10 16:09:00+00:00,339.7596,2.7,13.76,47.84626,-54.09684
2023-05-10 16:19:00+00:00,337.593,2.7,13.6,47.84626,-54.09684
2023-05-10 16:29:00+00:00,329.9496,2.7,13.6,47.84626,-54.09684
2023-05-10 16:39:00+00:00,329.6246,2.7,13.6,47.84626,-54.09684
2023-05-10 16:49:00+00:00,330.0313,2.7,13.6,47.84626,-54.09684
2023-05-10 16:59:00+00:00,322.4196,2.7,13.6,47.84626,-54.09684
2023-05-10 17:09:00+00:00,316.7997,2.7,13.6,47.84626,-54.09684
2023-05-10 17:19:00+00:00,319.013,2.7,13.76,47.84626,-54.09684
2023-05-10 17:29:00+00:00,312.6547,2.7,13.76,47.84626,-54.09684
2023-05-10 17:39:00+00:00,300.0914,2.73,13.76,47.84626,-54.09684
2023-05-10 17:49:00+00:00,298.4863,2.74,13.76,47.84626,-54.09684
2023-05-10 17:59:00+00:00,298.3413,2.74,13.76,47.84626,-54.09684
2023-05-10 18:09:00+00:00,287.0231,2.77,13.76,47.84626,-54.09684
2023-05-10 18:19:00+00:00,273.7681,2.77,13.68,47.84626,-54.09684
2023-05-10 18:29:00+00:00,269.983,2.77,13.68,47.84626,-54.09684
2023-05-10 18:39:00+00:00,264.7481,2.78,13.68,47.84626,-54.09684
2023-05-10 18:49:00+00:00,252.3897,2.8,13.68,47.84626,-54.09684
2023-05-10 18:59:00+00:00,242.1131,2.8,13.68,47.84626,-54.09684
2023-05-10 19:09:00+00:00,241.0081,2.8,13.68,47.84626,-54.09684
2023-05-10 19:19:00+00:00,237.2481,2.8,13.21,47.84626,-54.09684
2023-05-10 19:29:00+00:00,230.8764,2.8,13.21,47.84626,-54.09684
2023-05-10 19:39:00+00:00,228.0414,2.78,13.21,47.84626,-54.09684
2023-05-10 19:49:00+00:00,227.3714,2.7,13.21,47.84626,-54.09684
2023-05-10 19:59:00+00:00,222.5064,2.67,13.21,47.84626,-54.09684
2023-05-10 20:09:00+00:00,218.7098,2.6,13.21,47.84626,-54.09684
2023-05-10 20:19:00+00:00,218.2831,2.59,12.89,47.84626,-54.09684
2023-05-10 20:29:00+00:00,216.8331,2.53,12.89,47.84626,-54.09684
2023-05-10 20:39:00+00:00,214.6798,2.5,12.89,47.84626,-54.09684
2023-05-10 20:49:00+00:00,214.6181,2.5,12.89,47.84626,-54.09684
2023-05-10 20:59:00+00:00,217.0131,2.55,12.89,47.84626,-54.09684
2023-05-10 21:09:00+00:00,219.8914,2.59,12.89,47.84626,-54.09684
2023-05-10 21:19:00+00:00,221.5514,2.6,12.73,47.84626,-54.09684
2023-05-10 21:29:00+00:00,224.1514,2.6,12.73,47.84626,-54.09684
2023-05-10 21:39:00+00:00,224.3148,2.66,12.73,47.84626,-54.09684
2023-05-10 21:49:00+00:00,225.9381,2.7,12.73,47.84626,-54.09684
2023-05-10 21:59:00+00:00,229.5731,2.71,12.73,47.84626,-54.09684
2023-05-10 22:09:00+00:00,232.4948,2.77,12.73,47.84626,-54.09684
2023-05-10 22:19:00+00:00,232.8398,2.79,12.65,47.84626,-54.09684
2023-05-10 22:29:00+00:00,235.8531,2.8,12.65,47.84626,-54.09684
2023-05-10 22:39:00+00:00,239.1481,2.8,12.65,47.84626,-54.09684
2023-05-10 22:49:00+00:00,242.9447,2.8,12.65,47.84626,-54.09684
2023-05-10 22:59:00+00:00,245.7131,2.8,12.65,47.84626,-54.09684
2023-05-10 23:09:00+00:00,250.7914,2.8,12.65,47.84626,-54.09684
2023-05-10 23:19:00+00:00,253.0047,2.8,12.65,47.84626,-54.09684
2023-05-10 23:29:00+00:00,254.0014,2.8,12.65,47.84626,-54.09684
2023-05-10 23:39:00+00:00,259.8464,2.8,12.65,47.84626,-54.09684
2023-05-10 23:49:00+00:00,266.5947,2.8,12.65,47.84626,-54.09684
2023-05-10 23:59:00+00:00,268.118,2.8,12.65,47.84626,-54.09684
